Regional Weather Roundup
Issued by NWS Sioux Falls, SD

Home | Current Version | Previous Version | Graphics & Text | Print | Product List | Glossary Off
Versions: 1 2 3 4 5 6 7 8 9 10 11 12 13 14 15 16 17 18 19 20 21 22 23 24 25 26 27 28 29 30 31 32 33 34 35 36 37 38 39 40 41 42 43 44 45 46 47 48 49 50

000
ASUS43 KFSD 181102
RWRFSD

WEATHER ROUNDUP FOR SE SOUTH DAKOTA/SW MINNESOTA/NW IOWA
NATIONAL WEATHER SERVICE SIOUX FALLS SD
600 AM CDT FRI APR 18 2014

NOTE: "FAIR" INDICATES FEW OR NO CLOUDS BELOW 12,000 FEET WITH NO
SIGNIFICANT WEATHER AND OR OBSTRUCTIONS TO VISIBILITY.


SDZ038>040-050-052>070-181200-
SOUTHEAST SOUTH DAKOTA

CITY           SKY/WX    TMP DP  RH WIND       PRES   REMARKS
CHAMBERLAIN      N/A     36  26  67 SE17      30.03F
HURON          MOCLDY    35  27  72 SE15G22   30.12F WCI  25
MADISON        CLOUDY    32  32 100 SE15      30.20F WCI  22
MITCHELL       CLOUDY    35  28  75 SE20      30.15F WCI  24
SIOUX FALLS    MOCLDY    33  28  81 SE13      30.23S WCI  24
WINNER         FAIR      43  31  62 S24G35    29.96F
YANKTON        CLEAR     34  28  80 E9        30.21S WCI  26
$$

MNZ071-072-080-081-089-090-097-098-181200-
SOUTHWEST MINNESOTA

CITY           SKY/WX    TMP DP  RH WIND       PRES   REMARKS
FAIRMONT       CLOUDY    30  27  86 SE3       30.32S
JACKSON        MOCLDY    32  28  86 SE5       30.29R FOG     WCI  27
LUVERNE        CLEAR     32  30  93 E5        30.26S WCI  27
MARSHALL       CLOUDY    34  27  75 S8        30.27R WCI  27
MONTEVIDEO     CLOUDY    30  27  86 S6        30.29F WCI  24
PIPESTONE      MOCLDY    32  28  86 SE10      30.23S WCI  24
REDWOOD FALLS  CLOUDY    31  28  89 E5        30.30R WCI  26
TRACY          CLOUDY    33  29  88 S7        30.28R WCI  26
WINDOM         CLOUDY    30  28  93 SE5       30.29R WCI  25
WORTHINGTON    PTCLDY    28  23  80 SE6       30.28S WCI  22
$$

IAZ001>003-012>014-020>022-031-032-NEZ013-014-SDZ071-181200-
NORTHWEST IOWA

CITY           SKY/WX    TMP DP  RH WIND       PRES   REMARKS
CHEROKEE       CLEAR     30  26  85 CALM      30.28R
DENISON        PTCLDY    34  30  86 VRB6G13   30.26S WCI  29
ESTHERVILLE    CLOUDY    29  29 100 SE8       30.29R FOG     WCI  21
SHELDON        CLEAR     28  28 100 E10       30.25S WCI  19
SIOUX CITY     CLEAR     30  26  85 SE7       30.25S WCI  23
SPENCER        CLOUDY    31  28  89 SE8       30.29R WCI  23
STORM LAKE     CLEAR     30  30 100 SE12      30.28S FOG     WCI  21
$$

ABBREVIATIONS USED IN REMARKS
   TC - TEMPERATURE IN CELSIUS
  WCI - WIND CHILL INDEX
   HX - HEAT INDEX
  VSB - VISIBILITY




USA.gov is the U.S. government's official web portal to all federal, state and local government web resources and services.